Temp_Advection
nan nan nan nan nan nan nan nan nan nan nan nan nan nan nan nan nan nan nan nan nan nan nan nan nan nan nan nan nan nan nan nan nan nan nan nan nan nan nan nan nan nan nan
nan 0 0 0 0 0 -0 0 0 0 0 0 0 0 0 0 0 -0 -0 0 -0 -0 0 0 -0 -0 0 0 0 -0 0 0 -0 -0 -0 -0 -0 0 0 0 0 0 nan
nan -0 0 0 0 -0 -0 0 0 0 0 0 0 0 0 0 0 0 0 -0 -0 -0 -0 -0 0 0 0 0 0 -0 -0 0 0 -0 -0 -0 0 0 0 0 0 0 nan
nan 0 0 0 1 0 0 0 0 0 0 -0 -0 0 0 -0 0 0 0 0 -0 -0 0 0 -0 -0 0 0 0 0 0 -0 0 -0 -0 -0 0 -0 0 0 0 0 nan
nan 0 0 2 1 -0 1 1 0 0 -0 -0 0 1 0 -0 0 0 0 0 -0 -1 -0 0 0 0 -0 -0 -0 0 0 0 0 0 0 0 -0 -0 -0 -0 1 1 nan
nan 0 1 1 0 0 0 0 0 -0 0 0 0 0 0 -0 0 0 0 0 0 -0 -1 -1 0 1 0 -0 0 0 0 0 0 0 0 -0 -0 0 -0 0 1 1 nan
nan 1 0 -0 0 0 0 0 0 0 0 0 -0 -0 0 0 1 1 1 1 -1 -0 -1 -1 0 0 0 0 0 -0 0 0 0 0 -0 -0 -0 -0 0 0 -0 -0 nan
nan 0 0 0 0 0 1 0 -0 0 0 -0 -0 -0 -0 0 0 1 1 1 0 -1 -1 -0 -0 0 0 0 0 -0 -0 -0 -0 0 0 -0 0 0 0 0 0 1 nan
nan 0 0 0 0 1 1 0 0 0 0 0 0 -0 -1 -0 0 0 -0 -0 -0 -0 -0 1 -0 -1 1 1 0 -0 -0 0 0 0 -0 0 0 0 0 0 0 1 nan
nan 0 0 0 1 1 0 0 -0 -0 -0 -0 0 0 -0 -1 -0 0 0 -1 -1 -1 -0 1 1 1 1 1 0 -0 -0 -0 0 -0 0 0 0 0 0 0 0 1 nan
nan 1 1 1 0 0 0 0 -0 -0 -0 -0 -0 0 0 -0 -1 -1 -2 -2 -1 -1 -1 -1 -1 0 1 -0 1 0 0 0 0 1 0 0 1 1 0 0 0 1 nan
nan 0 0 0 0 0 0 0 -0 -0 -0 -1 -1 -1 -0 0 -0 -0 -0 -1 -2 -4 -4 -2 -0 1 -0 1 1 -0 -0 1 1 0 0 1 1 0 1 0 1 2 nan
nan 0 0 0 0 0 0 -0 -0 -0 -0 -1 -1 -2 -2 -1 -1 -0 0 0 0 -2 -3 -2 -1 0 3 1 -1 -0 -0 0 1 1 1 1 0 1 1 2 3 1 nan
nan 0 0 0 0 0 -0 -0 -0 -0 -1 -1 -1 -2 -3 -2 -2 -1 -1 0 -0 0 0 -0 -1 -1 1 -0 -0 -0 0 0 1 0 1 1 1 2 2 2 1 0 nan
nan 0 0 0 0 0 -0 -0 -0 -1 -1 -1 -1 -1 -1 -1 -0 -1 -1 -1 -0 0 -0 0 0 0 0 -0 -0 -0 0 0 1 1 1 2 2 2 1 1 1 0 nan
nan 0 0 0 0 0 -0 -0 -1 -1 -1 -1 -1 -0 0 0 0 -0 -1 -1 -1 -0 -0 0 0 0 -0 -0 -0 0 0 1 1 1 1 2 1 0 0 -0 -0 -0 nan
nan -0 -0 0 0 -0 -0 -0 -1 -1 -0 -0 -1 0 1 1 1 -0 -0 -1 -1 -0 0 0 1 0 0 0 1 1 1 1 1 2 2 1 1 0 0 0 0 0 nan
nan 0 0 0 0 -0 -0 -0 -0 -0 -0 -0 -0 0 1 0 -0 0 0 0 -0 0 0 0 1 1 1 2 1 1 1 2 2 1 1 0 -0 -0 -0 0 0 0 nan
nan 0 0 0 0 0 -0 -0 -0 -0 -0 -0 -0 0 0 0 0 -0 -0 -0 -0 0 0 -0 0 0 1 2 2 1 1 1 1 0 -0 -0 -0 0 0 -0 -0 -0 nan
nan 0 0 0 0 0 0 0 0 -0 -0 -0 -0 0 0 -0 -1 -0 -0 -0 -0 -1 -0 0 0 0 -0 -0 0 0 -0 -0 0 0 0 -0 -0 -0 -0 0 -0 -0 nan
nan 0 0 0 0 0 0 0 0 0 0 0 0 0 -0 -0 -0 -0 -0 0 0 -0 -0 -0 -0 0 0 -0 -0 -0 -0 -1 0 0 0 0 -0 -0 -0 -0 0 0 nan
nan 0 0 0 0 0 0 0 0 -0 -0 0 0 0 -0 -0 -0 -0 -0 -0 0 0 0 0 -0 -0 -0 -0 -0 -0 -0 -0 -0 -0 -0 0 0 0 0 0 0 0 nan
nan -0 0 0 0 0 0 -0 -0 -0 -0 -0 -0 -0 0 0 0 0 0 0 -0 -0 -0 0 0 0 0 0 0 0 0 -0 0 0 0 0 0 0 0 0 0 0 nan
nan 0 0 0 0 -0 -0 -0 -0 -0 -0 -0 0 0 0 -0 -0 -0 -0 -0 -0 -0 -0 -0 -0 -0 0 -0 -0 0 0 0 0 0 0 0 0 0 0 0 0 0 nan
nan 0 0 0 -0 -0 -0 -0 -0 -0 -0 -0 0 0 0 0 0 0 0 0 0 0 0 0 -0 -0 -0 -0 -0 0 0 0 0 -0 -0 0 0 0 0 0 0 0 nan
nan nan nan nan nan nan nan nan nan nan nan nan nan nan nan nan nan nan nan nan nan nan nan nan nan nan nan nan nan nan nan nan nan nan nan nan nan nan nan nan nan nan nan
Wind_Speed
31 28 27 25 26 26 25 26 26 26 26 25 24 23 20 20 22 21 20 22 25 25 24 22 22 21 20 21 18 16 15 16 19 19 19 16 15 16 14 13 12 10 8
33 29 27 21 26 26 25 25 26 26 25 24 25 26 26 23 24 25 25 25 24 24 24 24 25 22 23 22 22 21 22 22 22 22 21 18 18 17 19 17 13 10 11
29 32 29 28 22 25 24 24 24 26 26 26 27 28 29 27 27 27 28 27 28 27 26 26 26 26 26 24 25 25 24 23 22 24 23 20 17 18 20 20 18 15 14
29 26 27 28 24 21 17 20 23 24 26 28 28 30 30 28 29 28 27 29 29 29 30 30 28 28 28 27 26 27 26 25 24 25 23 20 18 18 20 21 21 18 17
28 25 23 24 25 23 22 17 16 18 22 23 28 30 34 37 34 29 28 31 32 33 32 32 31 31 31 29 28 29 27 26 26 25 25 24 22 21 24 24 23 21 20
25 20 18 19 19 17 18 18 17 18 18 23 23 29 30 29 26 33 31 35 35 35 36 37 36 34 33 33 31 31 30 29 29 29 28 27 27 24 24 26 27 25 21
25 18 19 13 16 19 18 21 21 22 22 24 26 26 28 29 30 27 31 33 34 35 36 37 35 36 34 32 32 31 31 32 32 31 32 31 29 26 24 25 25 24 25
25 22 19 17 18 18 19 21 18 18 18 20 23 26 29 31 32 33 34 35 39 40 38 37 35 35 36 33 32 34 32 32 32 33 33 31 27 24 25 24 23 24 24
23 18 16 16 16 14 18 15 13 15 18 20 22 24 28 31 34 36 38 40 42 42 40 39 39 39 41 36 35 32 33 34 31 30 30 29 28 27 26 27 27 26 26
20 17 13 11 12 12 9 9 10 12 15 18 22 26 29 33 36 39 42 45 47 47 45 44 43 41 43 40 39 39 36 36 34 33 32 31 30 29 27 28 28 28 28
18 15 13 10 7 6 5 5 6 9 12 17 21 26 31 34 35 36 38 43 45 48 50 49 47 45 43 41 41 38 34 30 33 32 33 33 30 29 22 24 28 29 25
16 16 11 9 8 7 5 2 3 8 13 17 20 25 26 27 27 26 28 31 35 41 47 47 47 45 43 38 30 32 30 28 23 23 25 25 20 18 26 32 31 33 28
15 12 8 8 9 7 3 1 6 10 12 17 21 25 28 28 25 23 24 26 28 31 39 41 40 40 37 27 26 26 24 26 26 27 26 22 22 25 28 29 27 15 30
9 7 7 10 9 7 4 6 9 11 17 22 27 30 30 30 30 32 33 23 18 21 24 24 23 28 32 26 25 21 21 22 20 23 25 23 22 24 25 25 22 19 20
10 6 11 13 10 7 7 9 12 17 22 26 29 28 32 32 32 33 37 23 14 13 15 16 16 18 24 30 28 23 22 22 23 23 22 24 24 25 23 24 26 27 27
9 12 15 12 9 7 8 10 14 18 21 24 26 27 30 28 29 29 31 27 12 9 10 13 11 16 19 22 26 23 17 19 21 22 22 25 29 29 29 29 30 29 27
6 14 13 10 9 7 8 10 13 16 18 23 27 28 29 32 31 26 22 22 14 8 4 12 17 17 22 20 22 21 20 22 23 25 26 30 31 32 33 31 31 28 24
10 13 10 9 8 7 7 8 8 12 16 21 27 30 27 31 34 28 19 12 10 9 10 13 14 18 21 26 26 24 24 26 26 30 32 31 31 32 28 26 26 25 22
16 14 11 8 7 5 4 4 5 9 12 17 20 25 29 29 31 32 32 29 25 22 16 16 19 25 26 27 28 28 30 32 34 31 28 29 31 30 25 21 21 19 16
17 13 9 6 6 7 5 3 2 2 6 9 12 17 20 22 29 31 32 32 31 30 28 26 22 19 20 25 29 32 31 27 27 30 31 29 25 23 22 18 16 16 11
18 15 11 9 8 10 8 4 3 2 4 1 4 9 13 14 18 21 22 25 29 29 30 30 28 28 28 26 23 25 27 29 27 25 23 21 17 16 16 17 14 13 14
18 18 15 10 8 9 8 8 7 6 4 2 1 2 4 5 8 10 12 15 18 19 20 21 23 23 23 21 19 21 21 20 19 17 15 15 14 14 14 13 12 11 11
21 20 18 14 10 9 11 10 8 5 4 3 1 1 2 2 2 3 4 6 8 10 11 12 13 14 14 13 13 11 10 11 11 11 12 12 12 12 12 12 11 11 12
24 22 20 18 14 13 13 12 10 8 5 2 2 3 2 2 2 1 1 2 3 4 4 4 5 6 8 8 9 10 11 11 11 10 10 9 10 13 12 10 11 12 14
25 24 23 21 16 15 14 13 13 11 8 8 7 7 6 7 6 5 4 5 4 2 1 1 1 3 7 6 7 8 9 10 11 10 10 10 9 12 12 13 13 15 12
25 23 18 17 17 16 14 13 11 11 11 10 10 10 10 9 8 8 6 3 4 5 5 3 4 4 4 6 8 10 9 10 9 9 9 12 13 12 13 12 15 14 11
Wind_Direction
229 232 233 235 237 238 242 244 246 253 257 257 260 266 267 272 272 275 267 273 276 273 272 275 274 271 270 266 266 266 266 256 266 274 280 285 283 277 276 288 277 246 256
231 231 237 242 239 240 245 248 247 252 257 260 262 264 266 269 268 265 271 272 275 276 270 273 274 273 272 270 263 261 263 266 270 277 277 278 284 273 269 271 252 238 249
225 235 235 242 241 239 246 249 248 249 254 258 261 263 262 263 265 262 264 267 268 267 268 270 274 272 272 270 265 266 269 270 269 271 278 279 273 270 268 260 240 243 245
242 241 240 241 243 248 255 256 257 257 257 260 264 268 267 267 264 265 266 267 267 263 262 263 271 270 268 268 267 267 270 271 272 271 273 272 270 267 264 259 243 248 237
235 240 240 243 245 248 252 262 260 258 258 265 268 272 273 269 263 265 271 272 268 265 263 262 264 268 270 269 268 267 267 268 267 266 269 270 267 265 262 262 244 251 231
226 227 230 241 251 255 258 251 258 257 260 263 264 281 281 269 281 259 271 274 261 265 269 267 265 267 269 271 271 267 266 265 266 263 263 265 267 271 267 265 255 236 218
229 221 224 224 236 251 254 251 251 254 261 266 271 276 284 282 280 274 266 267 266 264 262 262 267 267 266 267 268 267 262 262 261 263 262 261 265 265 266 263 254 252 250
231 218 206 209 220 238 257 252 252 258 266 274 281 283 282 281 279 275 273 267 263 265 263 264 267 272 269 265 267 263 262 259 258 256 257 262 263 268 266 262 258 257 242
211 206 194 195 216 225 237 245 261 277 285 288 291 288 286 284 282 279 276 274 272 269 267 265 262 264 268 266 256 266 267 258 258 256 256 258 258 261 260 254 245 237 227
187 184 196 197 217 210 226 256 272 279 284 291 294 295 292 289 283 276 271 267 267 266 264 264 263 259 256 256 255 261 268 258 256 256 258 259 257 258 258 250 247 241 234
168 171 162 175 182 189 206 224 255 279 292 297 299 302 305 303 298 293 283 274 268 263 260 258 257 258 255 256 257 256 262 268 262 261 257 256 256 258 256 258 253 243 228
150 142 138 137 154 161 167 189 289 310 319 321 321 319 317 313 311 306 298 286 274 267 260 257 254 253 258 257 252 251 256 257 269 271 255 259 247 244 265 251 234 229 212
141 129 122 139 147 146 142 11 349 353 353 350 346 339 333 329 330 330 318 295 277 268 264 261 254 250 248 246 244 247 243 243 247 241 244 223 230 236 234 223 212 190 185
151 135 128 149 144 130 82 35 23 14 11 7 2 356 353 346 346 345 343 321 284 274 273 269 263 251 235 227 227 232 240 243 228 225 223 219 214 210 207 202 192 171 165
164 147 156 150 139 110 73 48 35 26 25 18 12 7 356 354 351 346 345 336 301 276 267 265 246 228 217 214 216 229 238 226 218 220 214 203 192 181 168 154 149 140 127
174 158 154 146 129 104 69 57 45 42 35 30 17 14 8 353 354 353 347 354 326 294 284 245 231 218 205 209 205 211 215 218 214 205 196 187 170 155 141 133 126 122 117
185 165 158 152 142 104 84 71 59 52 42 37 29 25 19 17 13 5 347 350 349 347 206 199 194 202 199 184 194 192 188 191 192 186 177 164 153 145 140 133 120 118 127
174 170 161 159 145 120 100 90 71 63 51 42 40 33 35 36 35 29 30 28 58 91 115 138 151 156 174 175 168 170 169 168 168 157 148 147 149 142 136 130 128 140 144
178 179 170 166 163 156 120 112 92 61 55 50 52 51 49 45 49 54 52 57 64 70 81 103 123 129 132 143 150 154 158 149 140 138 139 135 133 131 130 134 138 144 151
184 190 195 195 201 201 196 168 150 99 59 52 51 58 55 50 53 57 65 68 72 80 83 87 94 106 109 118 121 123 128 130 130 128 126 126 127 130 138 154 166 156 165
190 193 194 203 212 219 224 235 243 243 234 267 32 44 55 48 53 61 66 72 77 79 80 79 86 92 99 108 114 123 127 128 124 126 132 135 140 152 165 150 151 158 157
200 200 205 211 216 223 226 235 242 233 231 239 10 30 20 39 36 49 60 72 79 81 82 84 89 92 96 98 105 113 118 127 135 140 148 158 160 161 156 166 169 166 168
207 210 215 219 226 227 220 219 214 206 205 220 202 103 39 29 11 28 56 63 71 78 83 87 90 100 111 121 126 128 136 144 152 161 173 174 172 165 169 177 179 174 172
213 217 224 228 226 228 218 211 209 205 206 231 284 271 244 236 225 208 120 104 95 91 89 93 105 120 125 134 142 147 154 157 160 164 170 178 174 166 172 178 173 174 177
218 220 224 227 227 221 215 213 214 218 230 245 257 269 275 255 238 226 238 239 242 254 267 233 131 177 194 174 161 160 155 158 166 173 178 179 172 177 177 176 180 182 188
219 224 225 216 210 204 205 211 223 237 244 246 256 261 262 261 240 228 228 241 265 261 252 243 210 185 159 169 181 185 188 189 192 197 201 190 188 185 182 189 191 193 199
Height
1523 1528 1532 1535 1539 1543 1545 1548 1551 1554 1556 1557 1559 1560 1561 1561 1563 1564 1564 1565 1566 1566 1568 1567 1567 1568 1568 1568 1568 1568 1568 1568 1568 1569 1569 1568 1568 1567 1566 1565 1564 1564 1565
1516 1522 1526 1530 1534 1537 1539 1542 1545 1548 1550 1551 1553 1554 1554 1554 1556 1557 1558 1559 1559 1560 1561 1562 1563 1564 1564 1564 1565 1565 1565 1565 1564 1564 1564 1564 1563 1563 1562 1561 1561 1561 1562
1510 1515 1521 1526 1528 1530 1534 1537 1539 1542 1544 1545 1546 1546 1546 1547 1548 1549 1550 1551 1551 1553 1554 1555 1556 1558 1558 1559 1560 1560 1561 1560 1560 1558 1558 1558 1558 1557 1556 1557 1557 1558 1559
1506 1510 1514 1519 1523 1526 1530 1532 1534 1536 1537 1538 1538 1538 1539 1540 1540 1541 1541 1542 1544 1545 1546 1547 1549 1551 1551 1553 1554 1554 1555 1555 1555 1554 1554 1554 1554 1553 1552 1552 1553 1554 1555
1502 1506 1511 1514 1517 1523 1526 1527 1528 1529 1530 1533 1533 1533 1534 1533 1533 1533 1534 1534 1536 1537 1537 1538 1540 1542 1544 1545 1546 1547 1548 1548 1549 1549 1549 1549 1549 1549 1548 1548 1550 1551 1550
1496 1501 1506 1511 1516 1521 1524 1525 1525 1525 1525 1528 1528 1527 1525 1525 1525 1525 1526 1525 1526 1526 1527 1528 1530 1532 1534 1536 1538 1539 1540 1541 1541 1542 1543 1543 1543 1544 1544 1544 1544 1544 1546
1491 1497 1501 1507 1509 1514 1518 1520 1520 1520 1521 1522 1522 1521 1519 1518 1518 1518 1518 1516 1515 1516 1516 1517 1519 1520 1523 1526 1528 1531 1531 1532 1534 1534 1534 1535 1536 1537 1538 1537 1537 1539 1540
1487 1492 1498 1502 1505 1509 1514 1515 1515 1516 1516 1517 1516 1514 1512 1512 1510 1509 1507 1506 1505 1505 1506 1506 1507 1509 1512 1516 1519 1521 1522 1523 1524 1525 1526 1528 1529 1531 1532 1532 1533 1534 1535
1485 1488 1493 1498 1503 1504 1507 1510 1511 1511 1512 1511 1509 1507 1505 1504 1501 1498 1496 1493 1492 1491 1493 1494 1497 1496 1501 1505 1510 1511 1512 1512 1516 1517 1519 1520 1521 1523 1524 1525 1525 1526 1528
1479 1482 1488 1492 1496 1502 1504 1507 1508 1509 1509 1506 1503 1500 1497 1493 1490 1487 1484 1480 1477 1478 1480 1481 1484 1488 1492 1496 1500 1501 1500 1503 1507 1509 1511 1512 1513 1514 1516 1517 1518 1519 1521
1477 1480 1485 1489 1497 1502 1504 1505 1505 1505 1503 1501 1498 1495 1489 1483 1478 1473 1469 1465 1464 1464 1464 1467 1471 1476 1481 1485 1488 1490 1491 1495 1497 1500 1502 1503 1505 1506 1507 1510 1510 1510 1512
1477 1479 1485 1492 1498 1501 1501 1501 1501 1500 1499 1496 1493 1489 1484 1476 1469 1464 1459 1454 1452 1449 1450 1453 1458 1464 1469 1474 1478 1481 1485 1487 1489 1489 1493 1494 1493 1490 1499 1497 1501 1501 1504
1478 1480 1486 1491 1495 1496 1497 1498 1498 1496 1495 1493 1489 1483 1477 1469 1462 1457 1451 1445 1442 1440 1439 1441 1446 1452 1458 1464 1470 1473 1475 1478 1479 1482 1482 1488 1487 1491 1494 1495 1497 1500 1488
1479 1484 1486 1490 1492 1494 1495 1496 1495 1495 1491 1490 1485 1478 1471 1464 1456 1448 1441 1436 1434 1434 1434 1433 1435 1440 1447 1456 1463 1466 1468 1470 1474 1477 1480 1483 1485 1487 1490 1494 1496 1498 1503
1482 1484 1486 1488 1492 1493 1495 1494 1493 1491 1490 1488 1482 1478 1471 1463 1455 1446 1438 1432 1430 1430 1430 1429 1430 1434 1439 1447 1454 1460 1463 1465 1469 1472 1475 1477 1481 1485 1489 1493 1495 1498 1503
1481 1483 1486 1488 1490 1493 1493 1494 1493 1492 1492 1488 1486 1479 1473 1466 1455 1445 1438 1433 1430 1429 1427 1428 1430 1432 1437 1444 1448 1455 1459 1463 1467 1469 1473 1477 1480 1486 1491 1495 1498 1501 1507
1480 1483 1485 1488 1491 1492 1494 1495 1495 1494 1493 1491 1487 1480 1475 1466 1453 1445 1442 1438 1433 1430 1429 1428 1431 1435 1438 1441 1448 1452 1455 1461 1465 1469 1472 1478 1483 1489 1493 1497 1502 1506 1512
1480 1484 1485 1488 1491 1493 1495 1496 1497 1495 1493 1492 1487 1484 1479 1469 1458 1453 1449 1444 1438 1435 1433 1433 1435 1437 1440 1442 1447 1451 1456 1461 1467 1472 1478 1484 1489 1493 1498 1503 1505 1509 1516
1478 1483 1485 1489 1491 1493 1495 1496 1497 1496 1495 1492 1492 1490 1482 1476 1469 1464 1460 1454 1451 1447 1445 1444 1444 1444 1446 1448 1450 1454 1460 1466 1473 1480 1485 1489 1495 1498 1503 1506 1510 1515 1518
1477 1482 1486 1488 1490 1493 1496 1496 1496 1495 1495 1496 1495 1491 1486 1484 1479 1476 1471 1469 1465 1462 1460 1458 1458 1458 1457 1459 1463 1468 1474 1479 1484 1488 1492 1495 1499 1502 1506 1511 1514 1516 1519
1475 1479 1484 1488 1489 1493 1494 1493 1494 1494 1496 1497 1495 1491 1489 1488 1487 1486 1485 1480 1477 1475 1474 1473 1472 1471 1471 1474 1477 1480 1482 1485 1490 1495 1498 1501 1503 1506 1510 1512 1514 1517 1520
1474 1478 1482 1486 1488 1490 1491 1493 1493 1495 1495 1494 1492 1490 1490 1491 1491 1492 1491 1488 1485 1483 1483 1483 1482 1482 1483 1486 1488 1489 1491 1493 1495 1499 1503 1506 1508 1510 1511 1515 1517 1519 1521
1473 1476 1480 1483 1486 1488 1491 1492 1492 1492 1492 1491 1490 1491 1491 1491 1492 1493 1493 1491 1489 1489 1489 1488 1488 1488 1489 1491 1492 1494 1495 1497 1499 1501 1505 1508 1510 1511 1513 1516 1518 1519 1522
1469 1473 1476 1480 1483 1486 1487 1488 1489 1489 1489 1489 1490 1491 1491 1491 1492 1493 1492 1492 1491 1491 1491 1492 1492 1491 1492 1493 1494 1496 1497 1498 1500 1502 1505 1507 1509 1511 1513 1516 1518 1520 1522
1466 1469 1472 1476 1479 1481 1483 1484 1485 1485 1486 1487 1488 1489 1489 1490 1491 1491 1492 1491 1491 1491 1491 1492 1491 1491 1492 1493 1494 1496 1497 1499 1500 1502 1504 1506 1508 1510 1512 1515 1517 1519 1522
1461 1465 1468 1471 1474 1476 1479 1480 1481 1482 1483 1483 1485 1486 1488 1488 1489 1490 1491 1490 1490 1490 1491 1491 1491 1491 1491 1491 1493 1495 1497 1498 1500 1501 1503 1505 1507 1509 1511 1513 1515 1518 1520